Time,TemperatureF,DewpointF,PressureIn,WindDirection,WindDirectionDegrees,WindSpeedMPH,WindSpeedGustMPH,Humidity,HourlyPrecipIn,Conditions,Clouds,dailyrainin,SolarRadiationWatts/m^2,SoftwareType,DateUTC
2013-01-17 00:00:00,22.9,20.7,30.27,SSW,210,4.0,7.0,91,0.00,,OVC033,0.00,0.00,VWS V14.00,2013-01-17 06:00:00,
2013-01-17 00:05:00,23.0,20.8,30.27,SSW,210,4.0,7.0,91,0.00,,OVC033,0.00,0.00,VWS V14.00,2013-01-17 06:05:00,
2013-01-17 00:10:00,23.1,20.9,30.28,SSW,210,4.0,7.0,91,0.00,,OVC033,0.00,0.00,VWS V14.00,2013-01-17 06:10:00,
2013-01-17 00:15:00,23.1,20.9,30.28,SSW,210,5.0,7.0,91,0.00,,OVC033,0.00,0.00,VWS V14.00,2013-01-17 06:15:00,
2013-01-17 00:20:00,23.2,21.0,30.28,SSW,210,4.0,7.0,91,0.00,,OVC033,0.00,0.00,VWS V14.00,2013-01-17 06:20:00,
2013-01-17 00:25:00,23.2,21.0,30.28,SSW,210,3.0,7.0,91,0.00,,OVC033,0.00,0.00,VWS V14.00,2013-01-17 06:25:00,
2013-01-17 00:30:00,23.1,20.9,30.29,SSW,210,3.0,4.0,91,0.00,,OVC033,0.00,0.00,VWS V14.00,2013-01-17 06:30:00,
2013-01-17 00:35:00,23.2,21.0,30.28,SSW,210,3.0,5.0,91,0.00,,OVC033,0.00,0.00,VWS V14.00,2013-01-17 06:35:00,
2013-01-17 00:40:00,23.2,21.0,30.28,SSW,210,2.0,5.0,91,0.00,,OVC040,0.00,0.00,VWS V14.00,2013-01-17 06:40:00,
2013-01-17 00:45:00,23.2,21.0,30.29,SSW,210,3.0,5.0,91,0.00,,OVC040,0.00,0.00,VWS V14.00,2013-01-17 06:45:00,
2013-01-17 00:50:00,23.3,21.1,30.28,SSW,210,1.0,5.0,91,0.00,,OVC040,0.00,0.00,VWS V14.00,2013-01-17 06:50:00,
2013-01-17 00:55:00,23.4,20.9,30.28,SSW,210,0.0,5.0,90,0.00,,OVC040,0.00,0.00,VWS V14.00,2013-01-17 06:55:00,
2013-01-17 01:01:00,23.4,21.2,30.28,SSW,210,1.0,1.0,91,0.00,,OVC040,0.00,0.00,VWS V14.00,2013-01-17 07:01:00,
2013-01-17 01:06:00,23.4,20.9,30.28,SSW,210,1.0,1.0,90,0.00,,OVC040,0.00,0.00,VWS V14.00,2013-01-17 07:06:00,
2013-01-17 01:11:00,23.4,20.9,30.28,SSW,210,1.0,1.0,90,0.00,,OVC040,0.00,0.00,VWS V14.00,2013-01-17 07:11:00,
2013-01-17 01:16:00,23.2,20.7,30.29,SSW,210,1.0,1.0,90,0.00,,OVC040,0.00,0.00,VWS V14.00,2013-01-17 07:16:00,
2013-01-17 01:21:00,23.0,20.5,30.29,SSW,210,1.0,1.0,90,0.00,,OVC040,0.00,0.00,VWS V14.00,2013-01-17 07:21:00,
2013-01-17 01:26:00,22.8,20.3,30.29,SSW,210,1.0,1.0,90,0.00,,OVC040,0.00,0.00,VWS V14.00,2013-01-17 07:26:00,
2013-01-17 01:31:00,22.9,20.7,30.29,SSW,210,1.0,1.0,91,0.00,,OVC040,0.00,0.00,VWS V14.00,2013-01-17 07:31:00,
2013-01-17 01:36:00,23.2,21.0,30.30,SSW,210,1.0,1.0,91,0.00,,OVC040,0.00,0.00,VWS V14.00,2013-01-17 07:36:00,
2013-01-17 01:41:00,23.6,21.4,30.30,SSW,210,1.0,1.0,91,0.00,,OVC036,0.00,0.00,VWS V14.00,2013-01-17 07:41:00,
2013-01-17 01:46:00,23.8,21.6,30.29,SSW,210,1.0,1.0,91,0.00,,OVC036,0.00,0.00,VWS V14.00,2013-01-17 07:46:00,
2013-01-17 01:51:00,23.8,21.3,30.29,SSW,210,1.0,1.0,90,0.00,,OVC036,0.00,0.00,VWS V14.00,2013-01-17 07:51:00,
2013-01-17 01:56:00,24.0,21.8,30.29,SSW,210,1.0,1.0,91,0.00,,OVC036,0.00,0.00,VWS V14.00,2013-01-17 07:56:00,
2013-01-17 02:01:00,23.9,21.4,30.29,SSW,210,1.0,1.0,90,0.00,,OVC036,0.00,0.00,VWS V14.00,2013-01-17 08:01:00,
2013-01-17 02:06:00,23.6,21.1,30.29,SSW,210,1.0,1.0,90,0.00,,OVC036,0.00,0.00,VWS V14.00,2013-01-17 08:06:00,
2013-01-17 02:11:00,23.3,20.8,30.30,SSW,210,1.0,1.0,90,0.00,,OVC036,0.00,0.00,VWS V14.00,2013-01-17 08:11:00,
2013-01-17 02:16:00,23.2,20.7,30.30,SSW,210,1.0,1.0,90,0.00,,OVC036,0.00,0.00,VWS V14.00,2013-01-17 08:16:00,
2013-01-17 02:21:00,23.5,21.3,30.30,SSW,210,1.0,1.0,91,0.00,,OVC036,0.00,0.00,VWS V14.00,2013-01-17 08:21:00,
2013-01-17 02:26:00,23.5,21.0,30.30,SSW,210,1.0,1.0,90,0.00,,OVC036,0.00,0.00,VWS V14.00,2013-01-17 08:26:00,
2013-01-17 02:31:00,23.7,21.2,30.30,SSW,210,1.0,1.0,90,0.00,,OVC036,0.00,0.00,VWS V14.00,2013-01-17 08:31:00,
2013-01-17 02:36:00,23.8,21.3,30.31,SSW,210,1.0,1.0,90,0.00,,OVC036,0.00,0.00,VWS V14.00,2013-01-17 08:36:00,
2013-01-17 02:41:00,24.1,21.6,30.31,SSW,210,1.0,1.0,90,0.00,,BKN045,0.00,0.00,VWS V14.00,2013-01-17 08:41:00,
2013-01-17 02:46:00,24.2,21.7,30.31,SSW,210,1.0,1.0,90,0.00,,BKN045,0.00,0.00,VWS V14.00,2013-01-17 08:46:00,
2013-01-17 02:52:00,24.3,21.8,30.31,SSW,210,1.0,1.0,90,0.00,,BKN045,0.00,0.00,VWS V14.00,2013-01-17 08:52:00,
2013-01-17 02:57:00,24.4,21.9,30.31,SSW,210,1.0,1.0,90,0.00,,BKN045,0.00,0.00,VWS V14.00,2013-01-17 08:57:00,
2013-01-17 03:02:00,24.2,21.7,30.32,SSW,210,1.0,1.0,90,0.00,,BKN045,0.00,0.00,VWS V14.00,2013-01-17 09:02:00,
2013-01-17 03:07:00,24.2,21.7,30.33,SSW,210,1.0,1.0,90,0.00,,BKN045,0.00,0.00,VWS V14.00,2013-01-17 09:07:00,
2013-01-17 03:12:00,24.5,22.0,30.33,SSW,210,1.0,1.0,90,0.00,,BKN045,0.00,0.00,VWS V14.00,2013-01-17 09:12:00,
2013-01-17 03:17:00,24.7,22.2,30.33,SSW,210,1.0,1.0,90,0.00,,BKN045,0.00,0.00,VWS V14.00,2013-01-17 09:17:00,
2013-01-17 03:22:00,24.8,22.3,30.33,SSW,210,1.0,1.0,90,0.00,,BKN045,0.00,0.00,VWS V14.00,2013-01-17 09:22:00,
2013-01-17 03:27:00,25.1,22.6,30.33,SSW,210,1.0,1.0,90,0.00,,BKN045,0.00,0.00,VWS V14.00,2013-01-17 09:27:00,
2013-01-17 03:32:00,25.4,23.1,30.32,SSW,210,1.0,1.0,91,0.00,,BKN045,0.00,0.00,VWS V14.00,2013-01-17 09:32:00,
2013-01-17 03:37:00,25.5,23.0,30.33,SSW,210,1.0,1.0,90,0.00,,BKN045,0.00,0.00,VWS V14.00,2013-01-17 09:37:00,
2013-01-17 03:42:00,25.5,23.0,30.33,WNW,284,4.0,5.0,90,0.00,,CLR,0.00,0.00,VWS V14.00,2013-01-17 09:42:00,
2013-01-17 03:47:00,25.7,23.2,30.33,WNW,284,5.0,6.0,90,0.00,,CLR,0.00,0.00,VWS V14.00,2013-01-17 09:47:00,
2013-01-17 03:52:00,26.0,23.7,30.34,WNW,284,3.0,6.0,91,0.00,,CLR,0.00,0.00,VWS V14.00,2013-01-17 09:52:00,
2013-01-17 03:57:00,25.8,23.3,30.34,WNW,284,5.0,6.0,90,0.00,,CLR,0.00,0.00,VWS V14.00,2013-01-17 09:57:00,
2013-01-17 04:02:00,25.8,23.5,30.35,WNW,284,5.0,6.0,91,0.00,,CLR,0.00,0.00,VWS V14.00,2013-01-17 10:02:00,
2013-01-17 04:07:00,26.1,23.8,30.34,WNW,284,4.0,7.0,91,0.00,,CLR,0.00,0.00,VWS V14.00,2013-01-17 10:07:00,
2013-01-17 04:12:00,26.2,23.9,30.34,WNW,284,5.0,7.0,91,0.00,,CLR,0.00,0.00,VWS V14.00,2013-01-17 10:12:00,
2013-01-17 04:17:00,26.3,24.0,30.34,WNW,284,5.0,7.0,91,0.00,,CLR,0.00,0.00,VWS V14.00,2013-01-17 10:17:00,
2013-01-17 04:22:00,26.3,24.0,30.35,WNW,284,6.0,7.0,91,0.00,,CLR,0.00,0.00,VWS V14.00,2013-01-17 10:22:00,
2013-01-17 04:27:00,26.4,24.1,30.34,WNW,284,8.0,8.0,91,0.00,,CLR,0.00,0.00,VWS V14.00,2013-01-17 10:27:00,
2013-01-17 04:32:00,26.3,24.0,30.34,WNW,284,6.0,8.0,91,0.00,,CLR,0.00,0.00,VWS V14.00,2013-01-17 10:32:00,
2013-01-17 04:37:00,26.4,24.1,30.34,WNW,284,8.0,8.0,91,0.00,,CLR,0.00,0.00,VWS V14.00,2013-01-17 10:37:00,
2013-01-17 04:42:00,26.6,24.3,30.35,WNW,284,6.0,8.0,91,0.00,,OVC044,0.00,0.00,VWS V14.00,2013-01-17 10:42:00,
2013-01-17 04:48:00,26.5,24.0,30.35,WNW,284,7.0,8.0,90,0.00,,OVC044,0.00,0.00,VWS V14.00,2013-01-17 10:48:00,
2013-01-17 04:53:00,26.3,23.8,30.35,WNW,284,7.0,8.0,90,0.00,,OVC044,0.00,0.00,VWS V14.00,2013-01-17 10:53:00,
2013-01-17 04:58:00,26.0,23.5,30.35,WNW,284,6.0,8.0,90,0.00,,OVC044,0.00,0.00,VWS V14.00,2013-01-17 10:58:00,
2013-01-17 05:03:00,25.8,23.3,30.35,WNW,284,5.0,7.0,90,0.00,,OVC044,0.00,0.00,VWS V14.00,2013-01-17 11:03:00,
2013-01-17 05:08:00,25.6,23.3,30.34,WNW,284,5.0,7.0,91,0.00,,OVC044,0.00,0.00,VWS V14.00,2013-01-17 11:08:00,
2013-01-17 05:13:00,25.7,23.4,30.35,WNW,284,3.0,7.0,91,0.00,,OVC044,0.00,0.00,VWS V14.00,2013-01-17 11:13:00,
2013-01-17 05:18:00,26.3,24.3,30.35,WNW,295,10.0,10.0,92,0.00,,OVC044,0.00,0.00,VWS V14.00,2013-01-17 11:18:00,
2013-01-17 05:23:00,27.4,25.1,30.35,NW,306,11.0,12.0,91,0.00,,OVC044,0.00,0.00,VWS V14.00,2013-01-17 11:23:00,
2013-01-17 05:28:00,27.7,25.2,30.36,NW,313,7.0,13.0,90,0.00,,OVC044,0.00,0.00,VWS V14.00,2013-01-17 11:28:00,
2013-01-17 05:33:00,27.7,25.2,30.36,NW,314,10.0,12.0,90,0.00,,OVC044,0.00,0.00,VWS V14.00,2013-01-17 11:33:00,
2013-01-17 05:38:00,27.6,24.8,30.36,NW,315,9.0,13.0,89,0.00,,OVC044,0.00,0.00,VWS V14.00,2013-01-17 11:38:00,
2013-01-17 05:43:00,27.5,24.7,30.36,NW,316,12.0,13.0,89,0.00,,SCT038,0.00,0.00,VWS V14.00,2013-01-17 11:43:00,
2013-01-17 05:48:00,28.1,25.3,30.37,NW,326,12.0,16.0,89,0.00,,SCT038,0.00,0.00,VWS V14.00,2013-01-17 11:48:00,
2013-01-17 05:53:00,28.3,25.2,30.37,NW,321,14.0,16.0,88,0.00,,SCT038,0.00,0.00,VWS V14.00,2013-01-17 11:53:00,
2013-01-17 05:58:00,28.6,25.2,30.37,NW,325,12.0,17.0,87,0.00,,SCT038,0.00,0.00,VWS V14.00,2013-01-17 11:58:00,
2013-01-17 06:03:00,28.5,25.1,30.37,NW,322,11.0,16.0,87,0.00,,SCT038,0.00,0.00,VWS V14.00,2013-01-17 12:03:00,
2013-01-17 06:08:00,28.5,25.1,30.37,NNW,331,12.0,16.0,87,0.00,,SCT038,0.00,0.00,VWS V14.00,2013-01-17 12:08:00,
2013-01-17 06:13:00,28.3,24.9,30.37,NNW,337,10.0,16.0,87,0.00,,SCT038,0.00,0.00,VWS V14.00,2013-01-17 12:13:00,
2013-01-17 06:18:00,28.2,25.1,30.37,NNW,336,15.0,19.0,88,0.00,,SCT038,0.00,0.00,VWS V14.00,2013-01-17 12:18:00,
2013-01-17 06:23:00,28.2,25.1,30.38,North,355,16.0,21.0,88,0.00,,SCT038,0.00,0.00,VWS V14.00,2013-01-17 12:23:00,
2013-01-17 06:28:00,27.6,24.2,30.38,North,355,17.0,21.0,87,0.00,,SCT038,0.00,0.00,VWS V14.00,2013-01-17 12:28:00,
2013-01-17 06:33:00,27.0,23.6,30.38,North,355,8.0,18.0,87,0.00,,SCT038,0.00,0.00,VWS V14.00,2013-01-17 12:33:00,
2013-01-17 06:38:00,26.7,23.4,30.38,NNE,14,11.0,18.0,87,0.00,,SCT038,0.00,0.00,VWS V14.00,2013-01-17 12:38:00,
2013-01-17 06:43:00,26.4,23.1,30.38,North,355,15.0,18.0,87,0.00,,SCT038,0.00,0.00,VWS V14.00,2013-01-17 12:43:00,
2013-01-17 06:48:00,26.1,22.8,30.38,North,9,13.0,18.0,87,0.00,,SCT038,0.00,0.00,VWS V14.00,2013-01-17 12:48:00,
2013-01-17 06:53:00,25.8,22.5,30.38,North,5,11.0,18.0,87,0.00,,BKN026,0.00,0.00,VWS V14.00,2013-01-17 12:53:00,
2013-01-17 06:59:00,25.4,22.1,30.38,North,5,13.0,18.0,87,0.00,,BKN026,0.00,0.00,VWS V14.00,2013-01-17 12:59:00,
2013-01-17 07:04:00,25.0,21.7,30.39,North,355,12.0,18.0,87,0.00,,BKN026,0.00,0.00,VWS V14.00,2013-01-17 13:04:00,
2013-01-17 07:09:00,24.8,21.5,30.39,NNW,342,8.0,18.0,87,0.00,,BKN026,0.00,0.00,VWS V14.00,2013-01-17 13:09:00,
2013-01-17 07:14:00,24.6,21.3,30.39,North,355,8.0,18.0,87,0.00,,BKN026,0.00,0.00,VWS V14.00,2013-01-17 13:14:00,
2013-01-17 07:19:00,24.4,21.4,30.40,North,350,9.0,18.0,88,0.00,,BKN026,0.00,0.00,VWS V14.00,2013-01-17 13:19:00,
2013-01-17 07:24:00,24.2,21.2,30.40,NNW,345,9.0,18.0,88,0.00,,BKN026,0.00,0.00,VWS V14.00,2013-01-17 13:24:00,
2013-01-17 07:29:00,24.1,21.1,30.40,NNW,348,7.0,18.0,88,0.00,,BKN026,0.00,0.00,VWS V14.00,2013-01-17 13:29:00,
2013-01-17 07:34:00,23.9,20.9,30.41,North,350,6.0,10.0,88,0.00,,BKN026,0.00,0.00,VWS V14.00,2013-01-17 13:34:00,
2013-01-17 07:39:00,23.9,21.1,30.41,NNW,346,8.0,10.0,89,0.00,,BKN026,0.00,0.00,VWS V14.00,2013-01-17 13:39:00,
2013-01-17 07:44:00,23.7,20.9,30.41,North,351,7.0,10.0,89,0.00,,SCT026,0.00,0.00,VWS V14.00,2013-01-17 13:44:00,
2013-01-17 07:49:00,23.6,20.8,30.42,North,350,4.0,10.0,89,0.00,,SCT026,0.00,0.00,VWS V14.00,2013-01-17 13:49:00,
2013-01-17 07:54:00,23.5,20.7,30.42,North,350,4.0,10.0,89,0.00,,SCT026,0.00,0.00,VWS V14.00,2013-01-17 13:54:00,
2013-01-17 07:59:00,23.5,20.7,30.42,North,350,4.0,10.0,89,0.00,,SCT026,0.00,0.00,VWS V14.00,2013-01-17 13:59:00,
2013-01-17 08:04:00,23.4,20.6,30.43,North,350,4.0,5.0,89,0.00,,SCT026,0.00,0.00,VWS V14.00,2013-01-17 14:04:00,
2013-01-17 08:09:00,23.4,20.6,30.42,North,350,4.0,5.0,89,0.00,,SCT026,0.00,0.00,VWS V14.00,2013-01-17 14:09:00,
2013-01-17 08:14:00,23.2,20.5,30.42,North,350,4.0,6.0,89,0.00,,SCT026,0.00,0.00,VWS V14.00,2013-01-17 14:14:00,
2013-01-17 08:19:00,23.0,20.2,30.42,North,350,4.0,6.0,89,0.00,,SCT026,0.00,5.00,VWS V14.00,2013-01-17 14:19:00,
2013-01-17 08:24:00,23.0,20.2,30.42,North,350,2.0,6.0,89,0.00,,SCT026,0.00,5.00,VWS V14.00,2013-01-17 14:24:00,
2013-01-17 08:29:00,22.9,20.1,30.42,North,350,0.0,6.0,89,0.00,,SCT026,0.00,5.00,VWS V14.00,2013-01-17 14:29:00,
2013-01-17 08:34:00,22.9,20.1,30.42,North,350,0.0,2.0,89,0.00,,SCT026,0.00,9.00,VWS V14.00,2013-01-17 14:34:00,
2013-01-17 08:39:00,23.0,20.2,30.42,North,350,0.0,2.0,89,0.00,,BKN120,0.00,11.00,VWS V14.00,2013-01-17 14:39:00,
2013-01-17 08:44:00,22.9,19.9,30.42,North,350,0.0,2.0,88,0.00,,BKN120,0.00,19.00,VWS V14.00,2013-01-17 14:44:00,
2013-01-17 08:49:00,22.7,19.7,30.44,North,350,0.0,2.0,88,0.00,,OVC120,0.00,19.00,VWS V14.00,2013-01-17 14:49:00,
2013-01-17 08:54:00,22.7,19.7,30.45,North,350,0.0,2.0,88,0.00,,OVC120,0.00,30.00,VWS V14.00,2013-01-17 14:54:00,
2013-01-17 08:59:00,22.8,19.5,30.42,North,350,0.0,0.0,87,0.00,,OVC120,0.00,47.00,VWS V14.00,2013-01-17 14:59:00,
2013-01-17 09:04:00,22.9,19.6,30.43,North,350,0.0,0.0,87,0.00,,OVC120,0.00,44.00,VWS V14.00,2013-01-17 15:04:00,
2013-01-17 09:09:00,22.8,19.5,30.44,North,350,0.0,0.0,87,0.00,,OVC120,0.00,54.00,VWS V14.00,2013-01-17 15:09:00,
2013-01-17 09:15:00,22.7,19.4,30.44,North,350,0.0,0.0,87,0.00,,OVC120,0.00,54.00,VWS V14.00,2013-01-17 15:15:00,
2013-01-17 09:20:00,22.7,19.4,30.45,North,350,0.0,0.0,87,0.00,,OVC120,0.00,58.00,VWS V14.00,2013-01-17 15:20:00,
2013-01-17 09:25:00,22.6,19.3,30.46,North,350,0.0,0.0,87,0.00,,OVC120,0.00,53.00,VWS V14.00,2013-01-17 15:25:00,
2013-01-17 09:30:00,22.6,19.3,30.46,North,350,0.0,0.0,87,0.00,,OVC120,0.00,65.00,VWS V14.00,2013-01-17 15:30:00,
2013-01-17 09:35:00,22.7,19.4,30.46,North,350,0.0,0.0,87,0.00,,OVC120,0.00,105.00,VWS V14.00,2013-01-17 15:35:00,
2013-01-17 09:40:00,22.9,19.6,30.47,North,350,0.0,0.0,87,0.00,,OVC029,0.00,91.00,VWS V14.00,2013-01-17 15:40:00,
2013-01-17 09:45:00,23.0,19.7,30.47,North,350,0.0,0.0,87,0.00,,OVC029,0.00,88.00,VWS V14.00,2013-01-17 15:45:00,
2013-01-17 09:50:00,22.8,19.2,30.48,North,350,0.0,0.0,86,0.00,,OVC029,0.00,98.00,VWS V14.00,2013-01-17 15:50:00,
2013-01-17 09:55:00,22.6,19.0,30.48,North,350,0.0,0.0,86,0.00,,OVC029,0.00,162.00,VWS V14.00,2013-01-17 15:55:00,
2013-01-17 10:00:00,22.6,19.0,30.48,North,350,0.0,0.0,86,0.00,,OVC029,0.00,128.00,VWS V14.00,2013-01-17 16:00:00,
2013-01-17 10:05:00,22.6,19.0,30.48,North,350,0.0,0.0,86,0.00,,OVC029,0.00,116.00,VWS V14.00,2013-01-17 16:05:00,
2013-01-17 10:10:00,22.6,19.0,30.48,North,350,0.0,0.0,86,0.00,,OVC029,0.00,114.00,VWS V14.00,2013-01-17 16:10:00,
2013-01-17 10:15:00,22.5,18.7,30.48,North,350,0.0,0.0,85,0.00,,OVC029,0.00,128.00,VWS V14.00,2013-01-17 16:15:00,
2013-01-17 10:20:00,22.5,19.0,30.48,North,350,0.0,0.0,86,0.00,,OVC029,0.00,135.00,VWS V14.00,2013-01-17 16:20:00,
2013-01-17 10:25:00,22.4,18.6,30.48,North,350,0.0,0.0,85,0.00,,OVC029,0.00,128.00,VWS V14.00,2013-01-17 16:25:00,
2013-01-17 10:30:00,22.4,18.9,30.48,North,350,0.0,0.0,86,0.00,,OVC029,0.00,134.00,VWS V14.00,2013-01-17 16:30:00,
2013-01-17 10:35:00,22.4,18.9,30.47,North,350,0.0,0.0,86,0.00,,OVC029,0.00,141.00,VWS V14.00,2013-01-17 16:35:00,
2013-01-17 10:40:00,22.4,18.9,30.47,North,350,0.0,0.0,86,0.00,,OVC027,0.00,146.00,VWS V14.00,2013-01-17 16:40:00,
2013-01-17 10:45:00,22.5,18.7,30.48,North,350,0.0,0.0,85,0.00,,OVC027,0.00,149.00,VWS V14.00,2013-01-17 16:45:00,
2013-01-17 10:50:00,22.5,18.7,30.47,North,350,0.0,0.0,85,0.00,,OVC027,0.00,158.00,VWS V14.00,2013-01-17 16:50:00,
2013-01-17 10:55:00,22.5,18.4,30.47,North,350,0.0,0.0,84,0.00,,OVC027,0.00,172.00,VWS V14.00,2013-01-17 16:55:00,
2013-01-17 11:00:00,22.5,18.4,30.46,North,350,0.0,0.0,84,0.00,,OVC027,0.00,174.00,VWS V14.00,2013-01-17 17:00:00,
2013-01-17 11:05:00,22.6,18.5,30.47,North,350,0.0,0.0,84,0.00,,OVC027,0.00,181.00,VWS V14.00,2013-01-17 17:05:00,
2013-01-17 11:10:00,22.7,18.6,30.47,North,350,0.0,0.0,84,0.00,,OVC027,0.00,183.00,VWS V14.00,2013-01-17 17:10:00,
2013-01-17 11:15:00,22.8,18.4,30.46,North,350,0.0,0.0,83,0.00,,OVC027,0.00,195.00,VWS V14.00,2013-01-17 17:15:00,
2013-01-17 11:20:00,22.9,18.2,30.45,North,350,0.0,0.0,82,0.00,,OVC027,0.00,204.00,VWS V14.00,2013-01-17 17:20:00,
2013-01-17 11:25:00,23.0,18.3,30.45,North,350,0.0,0.0,82,0.00,,OVC027,0.00,218.00,VWS V14.00,2013-01-17 17:25:00,
2013-01-17 11:31:00,23.1,18.1,30.44,North,350,0.0,0.0,81,0.00,,OVC027,0.00,220.00,VWS V14.00,2013-01-17 17:31:00,
2013-01-17 11:36:00,23.1,17.9,30.44,NNE,23,6.0,8.0,80,0.00,,OVC027,0.00,214.00,VWS V14.00,2013-01-17 17:36:00,
2013-01-17 11:41:00,23.2,18.2,30.44,NNE,25,5.0,8.0,81,0.00,,BKN095,0.00,211.00,VWS V14.00,2013-01-17 17:41:00,
2013-01-17 11:46:00,23.4,18.4,30.44,NNE,26,5.0,8.0,81,0.00,,BKN095,0.00,190.00,VWS V14.00,2013-01-17 17:46:00,
2013-01-17 11:51:00,23.5,18.2,30.44,NNE,26,4.0,8.0,80,0.00,,BKN095,0.00,200.00,VWS V14.00,2013-01-17 17:51:00,
2013-01-17 11:56:00,23.5,18.0,30.44,NNE,26,4.0,8.0,79,0.00,,BKN095,0.00,204.00,VWS V14.00,2013-01-17 17:56:00,
2013-01-17 12:01:00,23.6,17.8,30.44,NNE,26,1.0,5.0,78,0.00,,BKN095,0.00,204.00,VWS V14.00,2013-01-17 18:01:00,
2013-01-17 12:06:00,23.8,18.0,30.44,NNE,26,2.0,5.0,78,0.00,,BKN095,0.00,211.00,VWS V14.00,2013-01-17 18:06:00,
2013-01-17 12:11:00,24.1,18.0,30.44,NNE,26,3.0,5.0,77,0.00,,BKN095,0.00,193.00,VWS V14.00,2013-01-17 18:11:00,
2013-01-17 12:16:00,24.2,17.7,30.44,NNE,26,4.0,5.0,76,0.00,,BKN095,0.00,188.00,VWS V14.00,2013-01-17 18:16:00,
2013-01-17 12:21:00,24.1,17.6,30.44,NNE,26,1.0,5.0,76,0.00,,BKN095,0.00,183.00,VWS V14.00,2013-01-17 18:21:00,
2013-01-17 12:26:00,24.0,17.5,30.43,NNE,26,3.0,5.0,76,0.00,,BKN095,0.00,195.00,VWS V14.00,2013-01-17 18:26:00,
2013-01-17 12:31:00,23.9,17.8,30.43,NNE,26,3.0,4.0,77,0.00,,BKN095,0.00,171.00,VWS V14.00,2013-01-17 18:31:00,
2013-01-17 12:36:00,23.9,17.8,30.43,NNE,26,1.0,5.0,77,0.00,,BKN095,0.00,142.00,VWS V14.00,2013-01-17 18:36:00,
2013-01-17 12:41:00,23.9,17.8,30.43,NNE,26,2.0,5.0,77,0.00,,BKN080,0.00,148.00,VWS V14.00,2013-01-17 18:41:00,
2013-01-17 12:46:00,23.9,17.8,30.42,NNE,26,1.0,5.0,77,0.00,,BKN080,0.00,155.00,VWS V14.00,2013-01-17 18:46:00,
2013-01-17 12:51:00,23.8,17.4,30.42,NNE,26,3.0,5.0,76,0.00,,BKN080,0.00,151.00,VWS V14.00,2013-01-17 18:51:00,
2013-01-17 12:56:00,23.8,17.7,30.42,NNE,26,2.0,5.0,77,0.00,,BKN080,0.00,155.00,VWS V14.00,2013-01-17 18:56:00,
2013-01-17 13:01:00,23.8,17.4,30.42,NNE,26,1.0,3.0,76,0.00,,BKN080,0.00,193.00,VWS V14.00,2013-01-17 19:01:00,
2013-01-17 13:06:00,23.6,16.9,30.41,NNE,26,3.0,3.0,75,0.00,,BKN080,0.00,190.00,VWS V14.00,2013-01-17 19:06:00,
2013-01-17 13:11:00,23.5,17.1,30.41,NNE,26,5.0,5.0,76,0.00,,BKN080,0.00,179.00,VWS V14.00,2013-01-17 19:11:00,
2013-01-17 13:16:00,23.2,16.8,30.41,NNE,27,0.0,5.0,76,0.00,,BKN080,0.00,181.00,VWS V14.00,2013-01-17 19:16:00,
2013-01-17 13:21:00,23.2,17.1,30.42,NNE,27,0.0,5.0,77,0.00,,BKN080,0.00,171.00,VWS V14.00,2013-01-17 19:21:00,
2013-01-17 13:27:00,23.3,17.2,30.41,NNE,27,1.0,5.0,77,0.00,,BKN080,0.00,156.00,VWS V14.00,2013-01-17 19:27:00,
2013-01-17 13:32:00,23.1,17.0,30.41,NNE,27,2.0,4.0,77,0.00,,BKN080,0.00,146.00,VWS V14.00,2013-01-17 19:32:00,
2013-01-17 13:37:00,22.9,17.1,30.41,NNE,29,3.0,5.0,78,0.00,,BKN080,0.00,151.00,VWS V14.00,2013-01-17 19:37:00,
2013-01-17 13:42:00,22.9,17.4,30.40,NNE,29,4.0,5.0,79,0.00,,OVC065,0.00,169.00,VWS V14.00,2013-01-17 19:42:00,
2013-01-17 13:47:00,23.0,17.5,30.40,NNE,29,3.0,5.0,79,0.00,,OVC065,0.00,162.00,VWS V14.00,2013-01-17 19:47:00,
2013-01-17 13:52:00,22.9,17.4,30.40,NNE,29,4.0,5.0,79,0.00,,OVC065,0.00,135.00,VWS V14.00,2013-01-17 19:52:00,
2013-01-17 13:57:00,22.7,16.9,30.40,NE,35,1.0,6.0,78,0.00,,OVC065,0.00,118.00,VWS V14.00,2013-01-17 19:57:00,
2013-01-17 14:02:00,22.7,17.2,30.40,NE,35,2.0,4.0,79,0.00,,OVC065,0.00,104.00,VWS V14.00,2013-01-17 20:02:00,
2013-01-17 14:07:00,22.6,16.8,30.39,NE,35,3.0,4.0,78,0.00,,OVC065,0.00,134.00,VWS V14.00,2013-01-17 20:07:00,
2013-01-17 14:12:00,22.6,16.8,30.39,NE,35,4.0,5.0,78,0.00,,OVC065,0.00,127.00,VWS V14.00,2013-01-17 20:12:00,
2013-01-17 14:17:00,22.6,17.1,30.39,NE,35,4.0,6.0,79,0.00,,OVC065,0.00,107.00,VWS V14.00,2013-01-17 20:17:00,
2013-01-17 14:22:00,22.5,17.0,30.39,NE,36,4.0,7.0,79,0.00,,OVC065,0.00,109.00,VWS V14.00,2013-01-17 20:22:00,
2013-01-17 14:27:00,22.6,17.1,30.38,NE,36,4.0,7.0,79,0.00,,OVC065,0.00,104.00,VWS V14.00,2013-01-17 20:27:00,
2013-01-17 14:32:00,22.6,17.1,30.38,NE,36,5.0,5.0,79,0.00,,OVC065,0.00,109.00,VWS V14.00,2013-01-17 20:32:00,
2013-01-17 14:37:00,22.5,17.6,30.38,NE,37,4.0,7.0,81,0.00,,OVC065,0.00,111.00,VWS V14.00,2013-01-17 20:37:00,
2013-01-17 14:42:00,22.5,17.9,30.37,NE,44,5.0,7.0,82,0.00,,OVC021,0.00,118.00,VWS V14.00,2013-01-17 20:42:00,
2013-01-17 14:47:00,22.4,17.8,30.37,NE,49,7.0,8.0,82,0.00,,OVC021,0.00,132.00,VWS V14.00,2013-01-17 20:47:00,
2013-01-17 14:52:00,22.3,17.9,30.37,ENE,74,8.0,9.0,83,0.00,,OVC021,0.00,137.00,VWS V14.00,2013-01-17 20:52:00,
2013-01-17 14:57:00,22.4,18.3,30.36,ESE,115,8.0,12.0,84,0.00,,OVC021,0.00,160.00,VWS V14.00,2013-01-17 20:57:00,
2013-01-17 15:02:00,22.4,18.3,30.36,SE,128,6.0,11.0,84,0.00,,OVC021,0.00,151.00,VWS V14.00,2013-01-17 21:02:00,
2013-01-17 15:07:00,22.3,20.3,30.36,SE,130,10.0,11.0,92,0.00,,OVC021,0.00,130.00,VWS V14.00,2013-01-17 21:07:00,
2013-01-17 15:12:00,22.1,18.3,30.36,SE,128,7.0,12.0,85,0.00,,OVC021,0.00,132.00,VWS V14.00,2013-01-17 21:12:00,
2013-01-17 15:17:00,22.1,18.3,30.35,SE,131,7.0,12.0,85,0.00,,OVC021,0.00,123.00,VWS V14.00,2013-01-17 21:17:00,
2013-01-17 15:22:00,22.1,18.3,30.35,SE,137,8.0,12.0,85,0.00,,OVC021,0.00,127.00,VWS V14.00,2013-01-17 21:22:00,
2013-01-17 15:27:00,22.1,18.3,30.34,SE,137,8.0,12.0,85,0.00,,OVC021,0.00,113.00,VWS V14.00,2013-01-17 21:27:00,
2013-01-17 15:32:00,22.1,18.6,30.34,SE,137,8.0,8.0,86,0.00,,OVC021,0.00,98.00,VWS V14.00,2013-01-17 21:32:00,
2013-01-17 15:38:00,22.1,18.3,30.34,SE,137,8.0,8.0,85,0.00,,OVC021,0.00,97.00,VWS V14.00,2013-01-17 21:38:00,
2013-01-17 15:43:00,22.1,18.3,30.34,SE,137,8.0,8.0,85,0.00,,OVC030,0.00,88.00,VWS V14.00,2013-01-17 21:43:00,
2013-01-17 15:48:00,22.2,18.7,30.33,SE,137,8.0,8.0,86,0.00,,OVC030,0.00,83.00,VWS V14.00,2013-01-17 21:48:00,
2013-01-17 15:53:00,22.1,18.6,30.33,SE,137,8.0,8.0,86,0.00,,OVC030,0.00,79.00,VWS V14.00,2013-01-17 21:53:00,
2013-01-17 15:58:00,22.2,18.7,30.32,SE,137,8.0,8.0,86,0.00,,OVC030,0.00,77.00,VWS V14.00,2013-01-17 21:58:00,
2013-01-17 16:03:00,22.2,18.7,30.32,SE,137,8.0,8.0,86,0.00,,OVC030,0.00,83.00,VWS V14.00,2013-01-17 22:03:00,
2013-01-17 16:08:00,22.2,18.9,30.32,SE,137,8.0,8.0,87,0.00,,OVC030,0.00,88.00,VWS V14.00,2013-01-17 22:08:00,
2013-01-17 16:13:00,22.3,19.0,30.32,SE,137,8.0,8.0,87,0.00,,OVC030,0.00,74.00,VWS V14.00,2013-01-17 22:13:00,
2013-01-17 16:18:00,22.3,19.0,30.32,SE,137,8.0,8.0,87,0.00,,OVC030,0.00,74.00,VWS V14.00,2013-01-17 22:18:00,
2013-01-17 16:23:00,22.2,18.9,30.32,SE,137,8.0,8.0,87,0.00,,OVC030,0.00,58.00,VWS V14.00,2013-01-17 22:23:00,
2013-01-17 16:28:00,22.2,18.9,30.31,SE,137,8.0,8.0,87,0.00,,OVC030,0.00,44.00,VWS V14.00,2013-01-17 22:28:00,
2013-01-17 16:33:00,22.2,18.9,30.31,SE,137,8.0,8.0,87,0.00,,OVC030,0.00,37.00,VWS V14.00,2013-01-17 22:33:00,
2013-01-17 16:38:00,22.2,18.9,30.30,SE,137,8.0,8.0,87,0.00,,OVC030,0.00,39.00,VWS V14.00,2013-01-17 22:38:00,
2013-01-17 16:43:00,22.2,19.2,30.30,SE,137,8.0,8.0,88,0.00,,OVC029,0.00,28.00,VWS V14.00,2013-01-17 22:43:00,
2013-01-17 16:48:00,22.2,19.2,30.30,SE,137,8.0,8.0,88,0.00,,OVC029,0.00,21.00,VWS V14.00,2013-01-17 22:48:00,
2013-01-17 16:53:00,22.3,19.3,30.30,SE,137,8.0,8.0,88,0.00,,OVC029,0.00,16.00,VWS V14.00,2013-01-17 22:53:00,
2013-01-17 16:58:00,22.3,19.3,30.30,SE,137,8.0,8.0,88,0.00,,OVC029,0.00,12.00,VWS V14.00,2013-01-17 22:58:00,
2013-01-17 17:03:00,22.3,19.3,30.29,SE,137,8.0,8.0,88,0.00,,OVC029,0.00,9.00,VWS V14.00,2013-01-17 23:03:00,
2013-01-17 17:08:00,22.3,19.3,30.28,SE,137,8.0,8.0,88,0.00,,OVC029,0.00,9.00,VWS V14.00,2013-01-17 23:08:00,
2013-01-17 17:13:00,22.4,19.7,30.28,SE,137,8.0,8.0,89,0.00,,OVC029,0.00,7.00,VWS V14.00,2013-01-17 23:13:00,
2013-01-17 17:18:00,22.5,19.8,30.28,SE,137,8.0,8.0,89,0.00,,OVC029,0.00,5.00,VWS V14.00,2013-01-17 23:18:00,
2013-01-17 17:23:00,22.6,19.9,30.28,SE,137,8.0,8.0,89,0.00,,OVC029,0.00,0.00,VWS V14.00,2013-01-17 23:23:00,
2013-01-17 17:28:00,22.6,19.9,30.28,SE,137,8.0,8.0,89,0.00,,OVC029,0.00,0.00,VWS V14.00,2013-01-17 23:28:00,
2013-01-17 17:33:00,22.6,19.9,30.27,SE,137,8.0,8.0,89,0.00,,OVC029,0.00,0.00,VWS V14.00,2013-01-17 23:33:00,
2013-01-17 17:38:00,22.6,19.6,30.27,SE,137,8.0,8.0,88,0.00,,OVC029,0.00,0.00,VWS V14.00,2013-01-17 23:38:00,
2013-01-17 17:44:00,22.6,19.9,30.27,SE,137,8.0,8.0,89,0.00,,OVC022,0.00,0.00,VWS V14.00,2013-01-17 23:44:00,
2013-01-17 17:49:00,22.6,19.9,30.27,SE,137,8.0,8.0,89,0.00,,OVC022,0.00,0.00,VWS V14.00,2013-01-17 23:49:00,
2013-01-17 17:54:00,22.5,19.8,30.27,SE,137,8.0,8.0,89,0.00,,OVC022,0.00,0.00,VWS V14.00,2013-01-17 23:54:00,
2013-01-17 17:59:00,22.5,19.8,30.27,SE,137,8.0,8.0,89,0.00,,OVC022,0.00,0.00,VWS V14.00,2013-01-17 23:59:00,
2013-01-17 18:04:00,22.5,19.8,30.26,SE,137,8.0,8.0,89,0.00,,OVC022,0.00,0.00,VWS V14.00,2013-01-18 00:04:00,
2013-01-17 18:09:00,22.6,19.9,30.26,SE,137,8.0,8.0,89,0.00,,OVC022,0.00,0.00,VWS V14.00,2013-01-18 00:09:00,
2013-01-17 18:14:00,22.6,19.9,30.26,SE,137,8.0,8.0,89,0.00,,OVC021,0.00,0.00,VWS V14.00,2013-01-18 00:14:00,
2013-01-17 18:19:00,22.6,19.9,30.25,SE,137,8.0,8.0,89,0.00,,OVC021,0.00,0.00,VWS V14.00,2013-01-18 00:19:00,
2013-01-17 18:24:00,22.7,20.0,30.25,SE,137,8.0,8.0,89,0.00,,OVC021,0.00,0.00,VWS V14.00,2013-01-18 00:24:00,
2013-01-17 18:29:00,22.8,20.0,30.24,SE,137,8.0,8.0,89,0.00,,OVC021,0.00,0.00,VWS V14.00,2013-01-18 00:29:00,
2013-01-17 18:34:00,22.9,20.1,30.24,SE,137,8.0,8.0,89,0.00,,OVC021,0.00,0.00,VWS V14.00,2013-01-18 00:34:00,
2013-01-17 18:39:00,22.9,20.1,30.24,SE,137,8.0,8.0,89,0.00,,OVC021,0.00,0.00,VWS V14.00,2013-01-18 00:39:00,
2013-01-17 18:44:00,23.0,20.2,30.24,SE,137,8.0,8.0,89,0.00,,OVC021,0.00,0.00,VWS V14.00,2013-01-18 00:44:00,
2013-01-17 18:49:00,23.2,20.5,30.23,SE,137,8.0,8.0,89,0.00,,OVC021,0.00,0.00,VWS V14.00,2013-01-18 00:49:00,
2013-01-17 18:54:00,23.3,20.5,30.23,SE,137,8.0,8.0,89,0.00,,OVC021,0.00,0.00,VWS V14.00,2013-01-18 00:54:00,
2013-01-17 18:59:00,23.3,20.5,30.23,SE,137,8.0,8.0,89,0.00,,OVC021,0.00,0.00,VWS V14.00,2013-01-18 00:59:00,
2013-01-17 19:04:00,23.5,20.7,30.23,SE,137,8.0,8.0,89,0.00,,OVC021,0.00,0.00,VWS V14.00,2013-01-18 01:04:00,
2013-01-17 19:09:00,23.6,20.8,30.23,SE,137,8.0,8.0,89,0.00,,OVC021,0.00,0.00,VWS V14.00,2013-01-18 01:09:00,
2013-01-17 19:14:00,23.6,20.8,30.22,SE,137,8.0,8.0,89,0.00,,OVC021,0.00,0.00,VWS V14.00,2013-01-18 01:14:00,
2013-01-17 19:19:00,23.6,20.8,30.22,SE,137,8.0,8.0,89,0.00,,OVC021,0.00,0.00,VWS V14.00,2013-01-18 01:19:00,
2013-01-17 19:24:00,23.6,20.8,30.22,SE,137,8.0,8.0,89,0.00,,OVC021,0.00,0.00,VWS V14.00,2013-01-18 01:24:00,
2013-01-17 19:29:00,23.6,20.8,30.21,SE,137,8.0,8.0,89,0.00,,OVC021,0.00,0.00,VWS V14.00,2013-01-18 01:29:00,
2013-01-17 19:34:00,23.6,20.8,30.21,SE,137,8.0,8.0,89,0.00,,OVC021,0.00,0.00,VWS V14.00,2013-01-18 01:34:00,
2013-01-17 19:39:00,23.7,20.9,30.21,SE,137,8.0,8.0,89,0.00,,OVC017,0.00,0.00,VWS V14.00,2013-01-18 01:39:00,
2013-01-17 19:44:00,23.8,21.0,30.20,SE,137,8.0,8.0,89,0.00,,OVC017,0.00,0.00,VWS V14.00,2013-01-18 01:44:00,
2013-01-17 19:50:00,23.8,21.0,30.20,SE,137,8.0,8.0,89,0.00,,OVC014,0.00,0.00,VWS V14.00,2013-01-18 01:50:00,
2013-01-17 19:55:00,23.8,21.0,30.20,SE,137,8.0,8.0,89,0.00,,OVC014,0.00,0.00,VWS V14.00,2013-01-18 01:55:00,
2013-01-17 20:00:00,23.8,21.0,30.19,SE,137,8.0,8.0,89,0.00,,OVC014,0.00,0.00,VWS V14.00,2013-01-18 02:00:00,
2013-01-17 20:05:00,23.8,21.0,30.19,SE,137,8.0,8.0,89,0.00,,OVC014,0.00,0.00,VWS V14.00,2013-01-18 02:05:00,
2013-01-17 20:10:00,23.8,21.3,30.19,SE,137,8.0,8.0,90,0.00,,OVC014,0.00,0.00,VWS V14.00,2013-01-18 02:10:00,
2013-01-17 20:15:00,23.9,21.4,30.18,SE,137,8.0,8.0,90,0.00,,OVC014,0.00,0.00,VWS V14.00,2013-01-18 02:15:00,
2013-01-17 20:20:00,23.9,21.4,30.17,SE,137,8.0,8.0,90,0.00,,OVC014,0.00,0.00,VWS V14.00,2013-01-18 02:20:00,
2013-01-17 20:25:00,24.0,21.5,30.17,SE,137,8.0,8.0,90,0.00,,OVC014,0.00,0.00,VWS V14.00,2013-01-18 02:25:00,
2013-01-17 20:30:00,24.2,21.7,30.16,SE,137,8.0,8.0,90,0.00,,OVC014,0.00,0.00,VWS V14.00,2013-01-18 02:30:00,
2013-01-17 20:35:00,24.3,21.8,30.16,SE,137,8.0,8.0,90,0.00,,OVC014,0.00,0.00,VWS V14.00,2013-01-18 02:35:00,
2013-01-17 20:40:00,24.5,22.2,30.15,SE,137,8.0,8.0,91,0.00,,OVC013,0.00,0.00,VWS V14.00,2013-01-18 02:40:00,
2013-01-17 20:45:00,24.7,22.5,30.14,SE,137,8.0,8.0,91,0.00,,OVC013,0.00,0.00,VWS V14.00,2013-01-18 02:45:00,
2013-01-17 20:50:00,24.8,22.5,30.13,SE,137,8.0,8.0,91,0.00,,OVC013,0.00,0.00,VWS V14.00,2013-01-18 02:50:00,
2013-01-17 20:55:00,25.0,22.8,30.14,SE,137,8.0,8.0,91,0.00,,OVC013,0.00,0.00,VWS V14.00,2013-01-18 02:55:00,
2013-01-17 21:00:00,25.2,23.2,30.13,SE,137,8.0,8.0,92,0.00,,OVC013,0.00,0.00,VWS V14.00,2013-01-18 03:00:00,
2013-01-17 21:05:00,25.3,23.3,30.13,SE,137,8.0,8.0,92,0.00,,OVC013,0.00,0.00,VWS V14.00,2013-01-18 03:05:00,
2013-01-17 21:10:00,25.5,23.5,30.12,SE,137,8.0,8.0,92,0.00,,OVC013,0.00,0.00,VWS V14.00,2013-01-18 03:10:00,
2013-01-17 21:15:00,25.7,23.7,30.12,SE,137,8.0,8.0,92,0.00,,OVC013,0.00,0.00,VWS V14.00,2013-01-18 03:15:00,
2013-01-17 21:20:00,25.8,24.1,30.11,SE,137,8.0,8.0,93,0.00,,OVC013,0.00,0.00,VWS V14.00,2013-01-18 03:20:00,
2013-01-17 21:25:00,26.0,24.3,30.11,SE,137,8.0,8.0,93,0.00,,OVC013,0.00,0.00,VWS V14.00,2013-01-18 03:25:00,
2013-01-17 21:30:00,26.0,24.3,30.10,SE,137,8.0,8.0,93,0.00,,OVC013,0.00,0.00,VWS V14.00,2013-01-18 03:30:00,
2013-01-17 21:35:00,26.1,24.4,30.09,SE,137,8.0,8.0,93,0.00,,OVC013,0.00,0.00,VWS V14.00,2013-01-18 03:35:00,
2013-01-17 21:41:00,26.2,24.5,30.10,SE,137,8.0,8.0,93,0.00,,OVC110,0.00,0.00,VWS V14.00,2013-01-18 03:41:00,
2013-01-17 21:46:00,26.2,24.5,30.10,SE,137,8.0,8.0,93,0.00,,OVC110,0.00,0.00,VWS V14.00,2013-01-18 03:46:00,
2013-01-17 21:51:00,26.2,24.5,30.09,SE,137,8.0,8.0,93,0.00,,OVC110,0.00,0.00,VWS V14.00,2013-01-18 03:51:00,
2013-01-17 21:56:00,26.2,24.5,30.09,SE,137,8.0,8.0,93,0.00,,OVC110,0.00,0.00,VWS V14.00,2013-01-18 03:56:00,
2013-01-17 22:01:00,26.2,24.7,30.08,SE,137,8.0,8.0,94,0.00,,OVC110,0.00,0.00,VWS V14.00,2013-01-18 04:01:00,
2013-01-17 22:06:00,26.2,24.7,30.08,SE,137,8.0,8.0,94,0.00,,OVC110,0.00,0.00,VWS V14.00,2013-01-18 04:06:00,
2013-01-17 22:11:00,26.1,24.6,30.07,SE,137,8.0,8.0,94,0.00,,OVC110,0.00,0.00,VWS V14.00,2013-01-18 04:11:00,
2013-01-17 22:16:00,26.1,24.6,30.05,SE,137,8.0,8.0,94,0.00,,OVC110,0.00,0.00,VWS V14.00,2013-01-18 04:16:00,
2013-01-17 22:21:00,26.1,24.6,30.06,SE,137,8.0,8.0,94,0.00,,OVC110,0.00,0.00,VWS V14.00,2013-01-18 04:21:00,
2013-01-17 22:26:00,26.0,24.5,30.06,SE,137,8.0,8.0,94,0.00,,OVC110,0.00,0.00,VWS V14.00,2013-01-18 04:26:00,
2013-01-17 22:31:00,25.9,24.4,30.05,SE,137,8.0,8.0,94,0.00,,OVC110,0.00,0.00,VWS V14.00,2013-01-18 04:31:00,
2013-01-17 22:36:00,26.0,24.5,30.05,SE,137,8.0,8.0,94,0.00,,OVC110,0.00,0.00,VWS V14.00,2013-01-18 04:36:00,
2013-01-17 22:41:00,25.9,24.4,30.04,SE,137,8.0,8.0,94,0.00,,OVC120,0.00,0.00,VWS V14.00,2013-01-18 04:41:00,
2013-01-17 22:46:00,25.9,24.4,30.04,SE,137,8.0,8.0,94,0.00,,OVC120,0.00,0.00,VWS V14.00,2013-01-18 04:46:00,
2013-01-17 22:51:00,25.9,24.4,30.04,SE,137,8.0,8.0,94,0.00,,OVC120,0.00,0.00,VWS V14.00,2013-01-18 04:51:00,
2013-01-17 22:56:00,26.0,24.5,30.03,SE,137,8.0,8.0,94,0.00,,OVC120,0.00,0.00,VWS V14.00,2013-01-18 04:56:00,
2013-01-17 23:01:00,26.0,24.5,30.03,SE,137,8.0,8.0,94,0.00,,OVC120,0.00,0.00,VWS V14.00,2013-01-18 05:01:00,
2013-01-17 23:04:00,26.0,24.5,30.02,SE,137,8.0,8.0,94,0.00,,OVC120,0.00,0.00,VWS V14.00,2013-01-18 05:04:00,
2013-01-17 23:06:00,26.0,24.5,30.02,SE,137,8.0,8.0,94,0.00,,OVC120,0.00,0.00,VWS V14.00,2013-01-18 05:06:00,
2013-01-17 23:10:00,26.1,24.6,30.01,SE,137,8.0,8.0,94,0.00,,OVC120,0.00,0.00,VWS V14.00,2013-01-18 05:10:00,
2013-01-17 23:15:00,26.4,24.9,30.01,SE,137,8.0,8.0,94,0.00,,OVC120,0.00,0.00,VWS V14.00,2013-01-18 05:15:00,
2013-01-17 23:20:00,26.6,25.1,30.01,SE,137,8.0,8.0,94,0.00,,OVC120,0.00,0.00,VWS V14.00,2013-01-18 05:20:00,
2013-01-17 23:25:00,26.2,24.7,30.01,SE,137,8.0,8.0,94,0.00,,OVC120,0.00,0.00,VWS V14.00,2013-01-18 05:25:00,
2013-01-17 23:30:00,26.3,24.8,30.00,SE,137,8.0,8.0,94,0.00,,OVC120,0.00,0.00,VWS V14.00,2013-01-18 05:30:00,
2013-01-17 23:35:00,26.2,24.7,30.00,SE,137,8.0,8.0,94,0.00,,OVC120,0.00,0.00,VWS V14.00,2013-01-18 05:35:00,
2013-01-17 23:40:00,26.3,24.8,30.00,SE,137,8.0,8.0,94,0.00,,BKN110,0.00,0.00,VWS V14.00,2013-01-18 05:40:00,
2013-01-17 23:45:00,26.7,25.2,30.00,SE,137,8.0,8.0,94,0.00,,BKN110,0.00,0.00,VWS V14.00,2013-01-18 05:45:00,
2013-01-17 23:50:00,27.2,25.7,30.00,SE,137,8.0,8.0,94,0.00,,BKN110,0.00,0.00,VWS V14.00,2013-01-18 05:50:00,
2013-01-17 23:55:00,27.2,25.5,29.99,SE,137,8.0,8.0,93,0.00,,BKN110,0.00,0.00,VWS V14.00,2013-01-18 05:55:00,